FW9766 Weather Reports


Display with metric or nautical units.
time (UTC)temp
F
wind
direction
speed
MPH
gust
MPH
rain 1hr
in
rain 24hr
in
rain mn
in
humidity
%
barometer
mb
20260503203047 75 352 2.0 11.0 0.00 0.00 0.00 44 1020.6
20260503201542 76 174 6.0 16.0 0.00 0.00 0.00 43 1021.0
20260503200056 75 95 4.0 12.0 0.00 0.00 0.00 46 1021.1
20260503194547 75 147 7.0 14.0 0.00 0.00 0.00 43 1021.4
20260503193055 75 73 2.0 10.0 0.00 0.00 0.00 47 1021.7
20260503191545 75 93 4.0 12.0 0.00 0.00 0.00 47 1021.8
20260503190047 74 115 7.0 15.0 0.00 0.00 0.00 44 1022.2
20260503184559 74 76 5.0 13.0 0.00 0.00 0.00 45 1022.4
20260503183047 73 67 4.0 10.0 0.00 0.00 0.00 48 1022.6
20260503181608 72 108 7.0 14.0 0.00 0.00 0.00 49 1022.8
20260503180106 72 112 6.0 16.0 0.00 0.00 0.00 49 1023.1
20260503174552 71 111 4.0 13.0 0.00 0.00 0.00 48 1023.2
20260503173059 71 93 4.0 12.0 0.00 0.00 0.00 55 1023.5
20260503171552 71 85 7.0 15.0 0.00 0.00 0.00 52 1023.7
20260503081544 48 0 0.0 0.0 0.00 0.00 0.00 91 1022.6
20260503071552 49 0 0.0 0.0 0.00 0.00 0.00 91 1023.2
20260503054546 50 0 0.0 0.0 0.00 0.00 0.00 89 1023.7
20260503053045 51 0 0.0 0.0 0.00 0.00 0.00 88 1023.9
20260503051547 51 0 0.0 0.0 0.00 0.00 0.00 88 1023.6
20260503050049 52 0 0.0 3.0 0.00 0.00 0.00 87 1023.5
20260503044552 52 0 0.0 0.0 0.00 0.00 0.00 85 1023.6
20260503043054 53 0 0.0 2.0 0.00 0.00 0.00 84 1023.4
20260503041547 53 0 0.0 0.0 0.00 0.00 0.00 83 1023.3
20260503040043 53 0 0.0 0.0 0.00 0.00 0.00 82 1023.3
20260503034558 54 0 0.0 0.0 0.00 0.00 0.00 81 1023.0
20260503033048 54 0 0.0 0.0 0.00 0.00 0.00 80 1022.9
20260503031548 55 0 0.0 0.0 0.00 0.00 0.00 78 1022.8
20260503030112 56 0 0.0 0.0 0.00 0.00 0.00 75 1022.6
20260503024546 57 0 0.0 0.0 0.00 0.00 0.00 74 1022.6
20260503023041 58 0 0.0 0.0 0.00 0.00 0.00 72 1022.5
20260503021542 59 0 0.0 0.0 0.00 0.00 0.00 69 1022.2
20260503020049 60 0 0.0 1.0 0.00 0.00 0.00 67 1022.2
20260503014601 61 309 1.0 2.0 0.00 0.00 0.00 65 1021.7
20260503013050 63 0 0.0 3.0 0.00 0.00 0.00 62 1021.6
20260503011554 65 306 1.0 4.0 0.00 0.00 0.00 56 1021.4
20260503010043 67 302 1.0 5.0 0.00 0.00 0.00 54 1021.3
20260503004541 69 341 2.0 5.0 0.00 0.00 0.00 49 1021.1
20260503003055 70 325 1.0 6.0 0.00 0.00 0.00 49 1021.0
20260503001546 70 0 2.0 7.0 0.00 0.00 0.00 48 1021.0
20260503000052 71 318 1.0 7.0 0.00 0.00 0.00 46 1021.1
20260502234544 72 286 3.0 9.0 0.00 0.00 0.00 44 1021.0
20260502233042 72 308 2.0 8.0 0.00 0.00 0.00 44 1021.1
20260502231545 72 336 3.0 10.0 0.00 0.00 0.00 44 1021.2
20260502230048 73 352 2.0 8.0 0.00 0.00 0.00 44 1021.0
20260502224547 73 346 3.0 9.0 0.00 0.00 0.00 47 1021.1
20260502223047 73 352 4.0 10.0 0.00 0.00 0.00 45 1021.0
20260502221544 72 265 6.0 10.0 0.00 0.00 0.00 46 1021.0
20260502220053 72 317 5.0 9.0 0.00 0.00 0.00 44 1021.0
20260502214552 72 0 2.0 11.0 0.00 0.00 0.00 44 1021.1
20260502213045 72 286 3.0 13.0 0.00 0.00 0.00 47 1021.4
20260502211550 73 346 4.0 11.0 0.00 0.00 0.00 48 1021.4
20260502210044 72 278 3.0 11.0 0.00 0.00 0.00 45 1021.9
20260502204542 71 210 4.0 11.0 0.00 0.00 0.00 43 1021.9